Marrakech, Morocco

9:39 PM WEST on September 27, 2016 (GMT +0100)
Menara

Weather History for GMMX - February, 2014

Change the Weather History Date:

Monday, February 10, 2014

  Actual Average Record
Temperature  
Mean Temperature 56 °F -  
Max Temperature 63 °F 69 °F 78 °F (2000)
Min Temperature 48 °F 45 °F 32 °F (2012)
Degree Days  
Heating Degree Days 10    
Growing Degree Days 6 (Base 50)    
Moisture  
Dew Point 48 °F    
Average Humidity 77    
Maximum Humidity 100    
Minimum Humidity 44    
Precipitation  
Precipitation 0.00 in - - ()
Sea Level Pressure  
Sea Level Pressure 30.22 in    
Wind  
Wind Speed 7 mph ()    
Max Wind Speed 21 mph    
Max Gust Speed 37 mph    
Visibility 6.0 miles    
Events Rain    
Averages and records for this station are not official NWS values.
T = Trace of Precipitation, MM = Missing Value Source: Averaged Metar Reports

Daily Weather History Graph

Daily Weather History Graph

Search for Another Location

Airport or City:

Trip Planner

Search our weather history database for the weather conditions in past years. The results will help you decide how hot, cold, wet, or windy it might be!

Date:

Astronomy

Feb. 10, 2014 Rise Set
Actual Time 7:18 AM WET 6:14 PM WET
Civil Twilight 6:53 AM WET 6:39 PM WET
Nautical Twilight 6:24 AM WET 7:08 PM WET
Astronomical Twilight 5:56 AM WET 7:36 PM WET
Moon 2:38 PM WET (2/10) 3:55 AM WET (2/10)
Length of Visible Light 11h 46m
Length of Day
10h 56m
Waxing Gibbous, 83% of the Moon is Illuminated
Feb 10
Waxing Gibbous
Feb 14
Full
Feb 22
Last Quarter
Mar 1
New
Mar 8
First Quarter

Hourly Weather History & Observations

Time (WET) Temp. Dew Point Humidity Pressure Visibility Wind Dir Wind Speed Gust Speed Precip Events Conditions
12:00 AM 58 °F 52 °F 75% 30.11 in 6 mi SSW 6.9 mph - -   Partly Cloudy
12:00 AM 57.2 °F 51.8 °F 82% 30.09 in 6.2 mi SSW 6.9 mph - N/A   Scattered Clouds
12:30 AM 57.2 °F 51.8 °F 82% 30.09 in 6.2 mi SW 5.8 mph - N/A   Scattered Clouds
1:00 AM 57.2 °F 51.8 °F 82% 30.09 in 6.2 mi SW 5.8 mph - N/A   Scattered Clouds
1:30 AM 57.2 °F 51.8 °F 82% 30.09 in 6.2 mi SSW 5.8 mph - N/A   Scattered Clouds
2:00 AM 57.2 °F 53.6 °F 88% 30.09 in 6.2 mi West 8.1 mph - N/A Rain Light Rain
2:30 AM 57.2 °F 53.6 °F 88% 30.09 in 6.2 mi West 4.6 mph - N/A   Scattered Clouds
3:00 AM 56 °F 54 °F 90% 30.10 in 6 mi WSW 8.1 mph - - Rain Rain Showers
3:00 AM 57.2 °F 53.6 °F 88% 30.09 in 6.2 mi WSW 8.1 mph - N/A Rain Rain
3:30 AM 55.4 °F 55.4 °F 100% 30.12 in - West 16.1 mph 27.6 mph N/A Rain Heavy Rain
4:00 AM 55.4 °F 55.4 °F 100% 30.12 in 5.0 mi West 12.7 mph - N/A Rain Rain
4:30 AM 53.6 °F 53.6 °F 100% 30.12 in 5.0 mi WNW 20.7 mph 36.8 mph N/A   Mostly Cloudy
5:00 AM 53.6 °F 51.8 °F 94% 30.12 in 4.3 mi WNW 9.2 mph - N/A   Light Drizzle
5:30 AM 53.6 °F 53.6 °F 100% 30.15 in 5.6 mi WNW 8.1 mph - N/A   Mostly Cloudy
5:49 AM 53 °F 51 °F 92% 30.17 in 6 mi WNW 10.4 mph - - Rain Light Drizzle
6:00 AM 53.6 °F 51.8 °F 94% 30.15 in 6.2 mi WNW 10.4 mph - N/A   Mostly Cloudy
6:30 AM 53.6 °F 51.8 °F 94% 30.18 in 6.2 mi West 6.9 mph - N/A   Mostly Cloudy
7:00 AM 51.8 °F 51.8 °F 100% 30.21 in 5.0 mi West 6.9 mph - N/A   Mostly Cloudy
7:30 AM 51.8 °F 50.0 °F 94% 30.24 in 5.0 mi West 6.9 mph - N/A   Mostly Cloudy
8:00 AM 51.8 °F 50.0 °F 94% 30.24 in 6.2 mi West 6.9 mph - N/A   Mostly Cloudy
8:30 AM 51.8 °F 50.0 °F 94% 30.27 in 6.2 mi WSW 6.9 mph - N/A   Mostly Cloudy
9:00 AM 52 °F 50 °F 92% 30.29 in 6 mi West 6.9 mph - -   Clear
9:00 AM 51.8 °F 50.0 °F 94% 30.27 in 6.2 mi WSW 6.9 mph - N/A   Partly Cloudy
9:30 AM 53.6 °F 50.0 °F 88% 30.30 in 6.2 mi West 8.1 mph - N/A   Partly Cloudy
10:00 AM 53.6 °F 48.2 °F 82% 30.30 in 6.2 mi NNW 6.9 mph - N/A   Scattered Clouds
10:30 AM 53.6 °F 48.2 °F 82% 30.30 in 6.2 mi NNW 3.5 mph - N/A   Scattered Clouds
11:00 AM 55.4 °F 46.4 °F 72% 30.30 in 6.2 mi North 8.1 mph - N/A   Scattered Clouds
11:30 AM 55.4 °F 46.4 °F 72% 30.30 in 6.2 mi North 5.8 mph - N/A   Scattered Clouds
12:00 PM 56 °F 46 °F 59% 30.29 in 6 mi North 4.6 mph - -   Clear
12:00 PM 55.4 °F 46.4 °F 72% 30.27 in 6.2 mi North 4.6 mph - N/A   Scattered Clouds
12:30 PM 57.2 °F 46.4 °F 67% 30.27 in 6.2 mi NNE 4.6 mph - N/A   Scattered Clouds
1:00 PM 57.2 °F 44.6 °F 63% 30.27 in 6.2 mi NE 3.5 mph - N/A   Mostly Cloudy
1:30 PM 59.0 °F 44.6 °F 59% 30.24 in 6.2 mi NE 5.8 mph - N/A   Mostly Cloudy
2:00 PM 59.0 °F 42.8 °F 55% 30.24 in 6.2 mi ESE 3.5 mph - N/A   Mostly Cloudy
2:30 PM 59.0 °F 44.6 °F 59% 30.24 in 6.2 mi Variable 2.3 mph - N/A   Mostly Cloudy
3:00 PM 60 °F 44 °F 44% 30.22 in 6 mi ENE 6.9 mph - -   Clear
3:00 PM 60.8 °F 44.6 °F 55% 30.24 in 6.2 mi East 6.9 mph - N/A   Mostly Cloudy
3:30 PM 59.0 °F 44.6 °F 59% 30.24 in 6.2 mi NE 6.9 mph - N/A   Mostly Cloudy
4:00 PM 60.8 °F 44.6 °F 55% 30.21 in 6.2 mi NE 9.2 mph - N/A   Mostly Cloudy
4:30 PM 59.0 °F 42.8 °F 55% 30.21 in 6.2 mi NE 11.5 mph - N/A   Mostly Cloudy
5:00 PM 59.0 °F 44.6 °F 59% 30.21 in 6.2 mi NE 9.2 mph - N/A   Scattered Clouds
5:30 PM 59.0 °F 44.6 °F 59% 30.24 in 6.2 mi NE 9.2 mph - N/A   Scattered Clouds
6:00 PM 58 °F 44 °F 49% 30.24 in 6 mi NE 9.2 mph - -   Partly Cloudy
6:00 PM 59.0 °F 44.6 °F 59% 30.24 in 6.2 mi NE 9.2 mph - N/A   Scattered Clouds
6:30 PM 57.2 °F 44.6 °F 63% 30.24 in 6.2 mi NE 8.1 mph - N/A   Scattered Clouds
7:00 PM 55.4 °F 44.6 °F 67% 30.27 in 6.2 mi ENE 6.9 mph - N/A   Partly Cloudy
7:30 PM 55.4 °F 42.8 °F 63% 30.27 in 6.2 mi NE 8.1 mph - N/A   Partly Cloudy
8:00 PM 53.6 °F 41.0 °F 62% 30.27 in 6.2 mi NE 9.2 mph - N/A   Partly Cloudy
8:30 PM 53.6 °F 42.8 °F 67% 30.27 in 6.2 mi NE 8.1 mph - N/A   Partly Cloudy
9:00 PM 53 °F 44 °F 64% 30.30 in 6 mi NE 9.2 mph - -   Scattered Clouds
9:00 PM 53.6 °F 44.6 °F 72% 30.27 in 6.2 mi NE 9.2 mph - N/A   Partly Cloudy
9:30 PM 51.8 °F 44.6 °F 76% 30.30 in 6.2 mi ENE 9.2 mph - N/A   Partly Cloudy
10:00 PM 51.8 °F 44.6 °F 76% 30.30 in 6.2 mi ENE 8.1 mph - N/A   Partly Cloudy
10:30 PM 50.0 °F 44.6 °F 82% 30.30 in - ENE 6.9 mph - N/A   Clear
11:00 PM 48.2 °F 44.6 °F 87% 30.30 in - East 5.8 mph - N/A   Clear
11:30 PM 48.2 °F 44.6 °F 87% 30.30 in - East 8.1 mph - N/A   Clear